This demonstration page uses our WeatherBlox Daily Observations layout. Learn more.

38.88101, -77.10428

Hourly Observations for December 24, 2018

Temp ( °F °C ) Dew Point ( °F °C ) Humidity (%) Winds ( mph kmh ) Pressure ( in mb ) Visibility ( mi km ) Precip ( " mm )
12:52 am 00:52 Cloudy with Light Rain 44 6.7 39 3.9 83 83 N 3 6 30.04 1017 10 16.0934 0 0.0254
1:52 am 01:52 Cloudy 44 6.7 38 3.3 79 79 NNW 6 9 30.06 1018 10 16.0934 0 0.0254
2:52 am 02:52 Cloudy 43 6.1 38 3.3 82 82 NNW 5 7 30.06 1018 10 16.0934 0 0
3:52 am 03:52 Cloudy 43 6.1 36 2.2 76 76 NNW 6 9 30.08 1019 10 16.0934 0 0
4:52 am 04:52 Partly Cloudy 42 5.6 35 1.7 76 76 NNW 7 11 30.07 1018 10 16.0934 0 0
5:52 am 05:52 Mostly Clear 42 5.6 34 1.1 73 73 WNW 8 13 30.11 1020 10 16.0934 0 0
6:52 am 06:52 Mostly Clear 41 5 33 0.6 73 73 VRB 5 7 30.13 1020 10 16.0934 0 0
7:52 am 07:52 Mostly Sunny 43 6.1 32 0 65 65 VRB 6 9 30.15 1021 10 16.0934 0 0
8:52 am 08:52 Mostly Sunny 45 7.2 29 -1.7 54 54 NNW 10 17 30.19 1022 10 16.0934 0 0
9:52 am 09:52 Partly Cloudy 46 7.8 28 -2.2 50 50 WNW 10 17 30.22 1023 10 16.0934 0 0
10:52 am 10:52 Mostly Cloudy 44 6.7 26 -3.3 49 49 NW 9 15 30.21 1023 10 16.0934 0 0
11:52 am 11:52 Partly Cloudy 45 7.2 23 -5 42 42 NW 16 26 30.19 1022 10 16.0934 0 0
12:52 pm 12:52 Partly Cloudy 47 8.3 22 -5.6 37 37 NW 20 31 30.16 1021 10 16.0934 0 0
1:52 pm 13:52 Partly Cloudy 48 8.9 22 -5.6 36 36 WNW 17 28 30.17 1022 10 16.0934 0 0
2:52 pm 14:52 Partly Cloudy 48 8.9 21 -6.1 34 34 W 18 30 30.16 1022 10 16.0934 0 0
3:52 pm 15:52 Mostly Sunny 47 8.3 22 -5.6 37 37 WNW 13 20 30.17 1022 10 16.0934 0 0
4:52 pm 16:52 Mostly Clear 45 7.2 20 -6.7 37 37 W 7 11 30.18 1022 10 16.0934 0 0
5:52 pm 17:52 Partly Cloudy 44 6.7 21 -6.1 40 40 WNW 7 11 30.21 1023 10 16.0934 0 0
6:52 pm 18:52 Mostly Cloudy 45 7.2 22 -5.6 40 40 WNW 8 13 30.21 1023 10 16.0934 0 0
7:52 pm 19:52 Cloudy 45 7.2 23 -5 42 42 W 7 11 30.22 1023 10 16.0934 0 0
8:52 pm 20:52 Cloudy 45 7.2 23 -5 42 42 NW 6 9 30.22 1024 10 16.0934 0 0
9:52 pm 21:52 Cloudy 43 6.1 24 -4.4 47 47 NNW 14 22 30.25 1024 10 16.0934 0 0
10:52 pm 22:52 Mostly Cloudy 42 5.6 22 -5.6 45 45 NNW 12 19 30.27 1025 10 16.0934 0 0
11:52 pm 23:52 Cloudy 40 4.4 22 -5.6 49 49 NNW 9 15 30.28 1025 10 16.0934 0 0

Powered by AerisWeather